Voltar ao catálogo

COSMOS 2191

AtivoMilitarLEO
NORAD 21980·PAYLOAD·🇷🇺 Russia

Lançado Jun 3, 1992 de Plesetsk Cosmodrome

Loading…

Próximas Passagens (próximas 24 horas)

TLE

AtualizadoSource: Space-Track

Época: Sep 14, 2026, 14:49 UTC

1 21980U 92030E   26257.61760600  .00000003  00000-0  13350-3 0  9990
2 21980  74.0070 336.8290 0018673 347.5495  80.9211 12.44573955557297

Acompanhe COSMOS 2191 em tempo real com AllMySat

Download on the App Store